Molokai, HI

5:44 PM HST on July 25, 2017 (GMT -1000)
Molokai

Weather History for PHMK - March, 2013

Change the Weather History Date:

Wednesday, March 27, 2013

  Actual Average Record
Temperature  
Mean Temperature 70 °F -  
Max Temperature 75 °F 79 °F 93 °F (2004)
Min Temperature 64 °F 66 °F 59 °F (1965)
Cooling Degree Days 4    
Growing Degree Days 20 (Base 50)    
Moisture  
Dew Point 64 °F    
Average Humidity 84    
Maximum Humidity 94    
Minimum Humidity 69    
Precipitation  
Precipitation 0.04 in - - ()
Sea Level Pressure  
Sea Level Pressure 30.01 in    
Wind  
Wind Speed 7 mph (North)    
Max Wind Speed 16 mph    
Max Gust Speed 23 mph    
Visibility 10 miles    
Events Rain    
Averages and records for this station are not official NWS values.
T = Trace of Precipitation, MM = Missing Value Source: NWS Daily Summary

Daily Weather History Graph

Daily Weather History Graph

Search for Another Location

Airport or City:

Trip Planner

Search our weather history database for the weather conditions in past years. The results will help you decide how hot, cold, wet, or windy it might be!

Date:

Astronomy

Mar. 27, 2013 Rise Set
Actual Time 6:25 AM HST 6:41 PM HST
Civil Twilight 6:03 AM HST 7:04 PM HST
Nautical Twilight 5:37 AM HST 7:29 PM HST
Astronomical Twilight 5:11 AM HST 7:56 PM HST
Moon 7:25 PM HST (3/27) 6:31 AM HST (3/27)
Length of Visible Light 13h 00m
Length of Day
12h 16m
Full, 100% of the Moon is Illuminated
Mar 27
Full
Apr 2
Last Quarter
Apr 9
New
Apr 18
First Quarter
Apr 25
Full

Hourly Weather History & Observations

Time (HST) Temp. Dew Point Humidity Pressure Visibility Wind Dir Wind Speed Gust Speed Precip Events Conditions
12:54 AM 68.0 °F 64.0 °F 87% 30.02 in 10.0 mi NNE 5.8 mph - N/A   Clear
1:54 AM 68.0 °F 64.0 °F 87% 30.01 in 10.0 mi Calm Calm - N/A   Clear
2:54 AM 66.9 °F 63.0 °F 87% 29.99 in 10.0 mi NNE 5.8 mph - N/A   Clear
3:54 AM 66.0 °F 63.0 °F 90% 29.98 in 10.0 mi West 3.5 mph - N/A   Clear
4:54 AM 66.9 °F 64.0 °F 90% 29.98 in 10.0 mi North 5.8 mph - N/A   Clear
5:45 AM 66.2 °F 62.6 °F 88% 29.98 in 10.0 mi North 6.9 mph - N/A   Partly Cloudy
5:54 AM 66.9 °F 64.0 °F 90% 29.99 in 10.0 mi North 8.1 mph - N/A   Partly Cloudy
6:54 AM 68.0 °F 63.0 °F 84% 30.01 in 10.0 mi NNE 4.6 mph - N/A   Mostly Cloudy
7:54 AM 71.1 °F 64.0 °F 78% 30.03 in 10.0 mi NE 5.8 mph - N/A   Mostly Cloudy
8:54 AM 71.1 °F 64.9 °F 81% 30.04 in 10.0 mi NNE 6.9 mph - N/A   Clear
9:54 AM 73.9 °F 64.0 °F 71% 30.04 in 10.0 mi NNE 10.4 mph - N/A   Scattered Clouds
10:54 AM 75.9 °F 64.9 °F 69% 30.04 in 10.0 mi North 9.2 mph 16.1 mph N/A   Clear
11:54 AM 75.9 °F 66.0 °F 71% 30.03 in 10.0 mi North 12.7 mph 18.4 mph N/A   Mostly Cloudy
12:54 PM 75.0 °F 64.9 °F 71% 30.01 in 10.0 mi North 10.4 mph 18.4 mph N/A   Mostly Cloudy
1:17 PM 73.4 °F 64.4 °F 73% 29.99 in 10.0 mi North 12.7 mph - N/A   Mostly Cloudy
1:33 PM 71.6 °F 66.2 °F 83% 29.99 in 8.0 mi North 16.1 mph - 0.00 in Rain Light Rain
1:54 PM 70.0 °F 66.0 °F 87% 30.00 in 6.0 mi North 13.8 mph 21.9 mph 0.02 in Rain Rain
2:01 PM 69.8 °F 66.2 °F 88% 29.98 in 5.0 mi North 15.0 mph 23.0 mph 0.01 in Rain Light Rain
2:54 PM 68.0 °F 66.0 °F 93% 30.00 in 10.0 mi North 13.8 mph - 0.02 in   Mostly Cloudy
3:54 PM 68.0 °F 66.0 °F 93% 29.99 in 10.0 mi North 13.8 mph 23.0 mph 0.00 in   Mostly Cloudy
4:01 PM 66.2 °F 64.4 °F 94% 29.98 in 8.0 mi NNE 10.4 mph 23.0 mph 0.00 in Rain Light Rain
4:54 PM 68.0 °F 64.9 °F 90% 29.99 in 10.0 mi NNE 12.7 mph 20.7 mph 0.00 in Rain Light Rain
5:01 PM 66.2 °F 64.4 °F 94% 29.98 in 10.0 mi NE 11.5 mph 21.9 mph N/A   Mostly Cloudy
5:54 PM 68.0 °F 63.0 °F 84% 30.01 in 10.0 mi NNW 3.5 mph - N/A   Mostly Cloudy
6:54 PM 66.0 °F 64.0 °F 93% 30.03 in 10.0 mi NNE 8.1 mph - 0.00 in   Overcast
7:54 PM 66.0 °F 62.1 °F 87% 30.03 in 10.0 mi NNE 9.2 mph - N/A   Mostly Cloudy
8:54 PM 66.0 °F 60.1 °F 81% 30.05 in 10.0 mi North 6.9 mph - N/A   Clear
9:54 PM 66.0 °F 61.0 °F 84% 30.06 in 10.0 mi North 8.1 mph - N/A   Clear
10:54 PM 64.9 °F 59.0 °F 81% 30.07 in 10.0 mi NNE 4.6 mph - N/A   Clear
11:54 PM 64.9 °F 59.0 °F 81% 30.05 in 10.0 mi North 5.8 mph - N/A   Clear